EDT,Max TemperatureF,Mean TemperatureF,Min TemperatureF,Max Dew PointF,MeanDew PointF,Min DewpointF,Max Humidity, Mean Humidity, Min Humidity, Max Sea Level PressureIn, Mean Sea Level PressureIn, Min Sea Level PressureIn, Max VisibilityMiles, Mean VisibilityMiles, Min VisibilityMiles, Max Wind SpeedMPH, Mean Wind SpeedMPH, Max Gust SpeedMPH,PrecipitationIn, CloudCover, Events, WindDirDegrees
2012-10-1,65,61,56,61,58,53,93,89,84,29.85,29.76,29.69,10,8,2,7,2,12,0.48,8,Rain,62
2012-10-2,84,73,62,69,62,56,100,70,40,29.92,29.76,29.68,10,8,2,18,5,23,0.84,6,Rain,196
2012-10-3,74,67,59,62,60,58,97,79,61,30.16,30.06,29.92,10,10,7,6,1,7,0.00,7,,206
2012-10-4,75,64,53,61,56,52,100,73,46,30.27,30.21,30.16,10,10,10,13,3,14,0.00,4,,256
2012-10-5,77,63,49,56,52,48,100,73,46,30.26,30.15,30.00,10,6,0,9,1,12,0.00,3,Fog,273
2012-10-6,65,59,53,58,53,44,100,86,71,30.06,30.00,29.94,10,8,5,12,3,15,T,8,Rain,326
2012-10-7,53,48,43,48,45,42,100,83,66,30.17,30.08,29.95,10,6,2,12,2,16,0.26,8,Rain,314
2012-10-8,50,47,44,46,44,41,100,89,77,30.22,30.15,30.11,10,6,0,6,1,9,0.14,8,Fog-Rain,10
2012-10-9,59,52,44,47,45,44,93,78,62,30.18,30.10,30.04,10,10,7,8,1,10,0.00,7,,292
2012-10-10,60,52,43,50,47,43,100,84,67,30.19,30.09,30.03,10,8,2,15,5,21,0.00,6,,252
2012-10-11,67,51,35,43,38,30,100,63,26,30.31,30.25,30.18,10,6,0,13,1,16,0.00,2,Fog,252
2012-10-12,66,55,43,48,45,41,93,69,44,30.32,30.25,30.20,10,10,10,6,0,8,0.00,5,,325
2012-10-13,73,56,39,50,44,39,100,72,44,30.36,30.29,30.20,10,9,2,9,2,14,0.00,1,,133
2012-10-14,76,61,45,57,51,44,100,75,49,30.20,30.08,29.91,10,10,9,18,4,41,0.00,5,,184
2012-10-15,68,57,46,60,53,40,100,72,44,29.94,29.88,29.82,10,8,1,22,9,28,0.62,6,Rain,250
2012-10-16,66,52,38,46,41,36,100,66,32,30.04,29.95,29.88,10,8,2,10,1,14,0.00,3,,265
2012-10-17,74,56,38,46,42,37,100,68,35,29.97,29.88,29.76,10,8,2,13,1,20,0.00,3,,147
2012-10-18,77,65,52,55,48,42,83,62,40,29.78,29.72,29.64,10,10,10,25,8,36,T,4,,203
2012-10-19,67,53,39,49,37,25,92,57,22,29.76,29.72,29.65,10,10,10,24,7,33,0.00,3,,236
2012-10-20,59,53,47,42,40,37,74,61,47,29.98,29.86,29.73,10,10,8,16,6,21,0.00,7,,265
2012-10-21,66,53,40,45,42,38,93,69,44,30.17,30.11,30.00,10,10,10,9,1,13,0.00,2,,164
2012-10-22,76,58,40,49,44,39,100,67,33,30.25,30.18,30.12,10,9,2,6,1,9,0.00,1,,356
2012-10-23,79,62,44,53,49,43,100,70,39,30.19,30.13,30.08,10,9,3,8,2,,0.00,3,,253
2012-10-24,80,62,44,53,48,45,100,65,30,30.25,30.15,30.06,10,7,0,5,0,7,0.00,2,Fog,292
2012-10-25,81,62,43,51,47,42,100,64,28,30.14,30.07,30.00,10,10,6,7,1,10,0.00,0,,60
2012-10-26,80,64,48,56,50,45,100,65,30,30.09,30.00,29.92,10,10,9,7,1,8,0.00,2,,163
2012-10-27,66,58,49,54,49,42,96,82,67,29.91,29.88,29.86,10,9,6,13,5,20,0.00,7,,356
2012-10-28,50,45,40,45,41,36,93,86,79,29.92,29.86,29.82,10,8,2,12,6,16,0.35,8,Rain,321
2012-10-29,41,39,36,37,35,32,92,86,79,29.91,29.81,29.63,10,10,5,23,11,31,0.18,8,Rain-Snow,283
2012-10-30,39,38,36,35,33,31,92,87,82,29.71,29.59,29.52,10,10,6,22,14,26,0.08,8,Rain-Snow,254
2012-10-31,46,42,38,38,34,32,92,76,60,29.82,29.75,29.70,10,10,10,22,7,25,T,8,Rain,255